Weather History for KFCM - April, 2014

Change the Weather History Date:

Saturday, April 5, 2014

  Actual Average Record
Temperature  
Mean Temperature 36 °F -  
Max Temperature 51 °F 49 °F 73 °F (2004)
Min Temperature 23 °F 31 °F 16 °F (2007)
Degree Days  
Heating Degree Days 28    
Moisture  
Dew Point 28 °F    
Average Humidity 78    
Maximum Humidity 96    
Minimum Humidity 58    
Precipitation  
Precipitation 0.00 in - - ()
Sea Level Pressure  
Sea Level Pressure 30.07 in    
Wind  
Wind Speed 6 mph (SSW)    
Max Wind Speed 16 mph    
Max Gust Speed 23 mph    
Visibility 8 miles    
Events      
Averages and records for this station are not official NWS values.
T = Trace of Precipitation, MM = Missing Value Source: NWS Daily Summary

Daily Weather History Graph

Daily Weather History Graph

Search for Another Location

Airport or City:

Trip Planner

Search our weather history database for the weather conditions in past years. The results will help you decide how hot, cold, wet, or windy it might be!

Date:

Astronomy

Apr. 05, 2014 Rise Set
Actual Time 6:47 AM CDT 7:46 PM CDT
Civil Twilight 6:17 AM CDT 8:16 PM CDT
Nautical Twilight 5:41 AM CDT 8:52 PM CDT
Astronomical Twilight 5:04 AM CDT 9:29 PM CDT
Moon 10:46 AM CDT (4/5) 1:05 AM CDT (4/5)
Length of Visible Light 13h 59m
Length of Day
12h 59m
Waxing Crescent, 34% of the Moon is Illuminated
Apr 5
Waxing Crescent
Apr 7
First Quarter
Apr 15
Full
Apr 22
Last Quarter
Apr 29
New

Hourly Weather History & Observations

Time (CDT) Temp. Windchill Dew Point Humidity Pressure Visibility Wind Dir Wind Speed Gust Speed Precip Events Conditions
12:53 AM 30.0 °F 25.2 °F 25.0 °F 82% 30.08 in 10.0 mi WSW 4.6 mph - N/A   Clear
1:53 AM 28.0 °F 24.2 °F 25.0 °F 88% 30.09 in 10.0 mi West 3.5 mph - N/A   Clear
2:53 AM 26.1 °F 20.5 °F 23.0 °F 88% 30.10 in 10.0 mi SW 4.6 mph - N/A   Clear
3:53 AM 26.1 °F 20.5 °F 24.1 °F 92% 30.10 in 7.0 mi SW 4.6 mph - N/A   Clear
4:53 AM 25.0 °F 17.1 °F 23.0 °F 92% 30.10 in 6.0 mi SW 6.9 mph - N/A   Clear
5:33 AM 24.8 °F 17.9 °F 23.0 °F 93% 30.07 in 6.0 mi SW 5.8 mph - N/A   Scattered Clouds
5:45 AM 24.8 °F 20.5 °F 21.2 °F 86% 30.07 in 5.0 mi SW 3.5 mph - N/A   Mostly Cloudy
5:53 AM 24.1 °F 18.2 °F 21.9 °F 91% 30.10 in 5.0 mi SW 4.6 mph - N/A   Scattered Clouds
6:53 AM 24.1 °F 19.7 °F 23.0 °F 96% 30.11 in 3.0 mi SSW 3.5 mph - N/A   Clear
7:07 AM 23.0 °F 18.4 °F 21.2 °F 93% 30.09 in 3.0 mi SW 3.5 mph - N/A   Scattered Clouds
7:15 AM 24.8 °F 20.5 °F 23.0 °F 93% 30.09 in 2.5 mi SSW 3.5 mph - N/A   Partly Cloudy
7:31 AM 24.8 °F - 21.2 °F 86% 30.09 in 3.0 mi Calm Calm - N/A   Scattered Clouds
7:53 AM 25.0 °F - 24.1 °F 96% 30.13 in 3.0 mi Calm Calm - N/A   Clear
8:53 AM 28.0 °F 21.7 °F 26.1 °F 92% 30.14 in 7.0 mi SSW 5.8 mph - N/A   Clear
9:53 AM 33.1 °F 27.7 °F 27.0 °F 78% 30.14 in 10.0 mi South 5.8 mph - N/A   Clear
10:53 AM 37.0 °F 28.9 °F 27.0 °F 67% 30.13 in 10.0 mi SW 12.7 mph - N/A   Clear
11:53 AM 39.0 °F 32.3 °F 28.0 °F 65% 30.12 in 10.0 mi SSW 10.4 mph 20.7 mph N/A   Clear
12:53 PM 42.1 °F 35.2 °F 30.0 °F 62% 30.11 in 10.0 mi SSW 12.7 mph 18.4 mph N/A   Clear
1:53 PM 43.0 °F 35.7 °F 30.9 °F 62% 30.09 in 10.0 mi SSW 15.0 mph 23.0 mph N/A   Clear
2:53 PM 46.0 °F 39.3 °F 32.0 °F 58% 30.06 in 10.0 mi South 16.1 mph 20.7 mph N/A   Clear
3:53 PM 48.0 °F - 34.0 °F 58% 30.03 in 10.0 mi South 15.0 mph - N/A   Clear
4:53 PM 50.0 °F - 36.0 °F 59% 30.00 in 10.0 mi South 15.0 mph - N/A   Clear
5:53 PM 48.9 °F - 37.0 °F 64% 30.01 in 10.0 mi South 12.7 mph - N/A   Mostly Cloudy
6:53 PM 48.9 °F - 37.0 °F 64% 30.01 in 10.0 mi South 11.5 mph - N/A   Overcast
7:53 PM 46.0 °F 41.4 °F 36.0 °F 68% 29.99 in 10.0 mi SSE 9.2 mph - N/A   Mostly Cloudy
8:53 PM 45.0 °F 40.1 °F 36.0 °F 71% 30.00 in 10.0 mi SSE 9.2 mph - N/A   Mostly Cloudy
9:53 PM 42.1 °F 36.6 °F 34.0 °F 73% 29.99 in 10.0 mi SSE 9.2 mph - N/A   Clear
10:53 PM 42.1 °F 36.1 °F 33.1 °F 70% 29.98 in 10.0 mi SSE 10.4 mph - N/A   Clear
11:53 PM 42.1 °F 36.1 °F 32.0 °F 67% 29.97 in 10.0 mi South 10.4 mph - N/A   Mostly Cloudy